Location: Newark
(27.9675°N, 86.8869°E)
Time: 11:35:00
(UTC+00:00)

deb Explorer IX - Pass Details

Date: 28 October 2019
Orbit: 546 x 1105 km, 38.8° (Epoch: 12 November)

Event Time Altitude Azimuth Distance (km) Brightness Sun altitude
Rises 05:10:13 0° 280° (W) 2,760 ? 47.5°
Reaches altitude 10° 05:12:43 10° 294° (WNW) 1,914 ? 47.7°
Maximum altitude 05:16:23 25° 351° (N) 1,266 ? 47.9°
Drops below altitude 10° 05:20:28 10° 47° (NE) 2,142 ? 48.1°
Sets 05:23:25 0° 60° (ENE) 3,168 ? 48.2°
